sat.trackr.live / text

‹ back to catalog

STARLINK-34636

NORAD 64915 · 2025-157M

PAYLOAD ACTIVE UNKNOWN

§ Identity

Operator
Country
US
Launch date
2025-07-26
Launch site
AFETR
Launch vehicle
Mass (kg)
RCS (m²)

Purposes: comms

External: N2YO · Heavens-Above · Gunter

§ Orbital elements

Epoch: 2026-09-20T03:41:25.140480Z

Period
93.85 min
Inclination
53.1584°
Eccentricity
0.0001305
Mean motion
15.34411736 rev/d
Perigee alt
461.8 km
Apogee alt
463.6 km
Semi-major
6,840.8 km
B*
5.3504e-4
RAAN
159.0997°
Arg perigee
91.1713°
Mean anomaly
268.9439°
Rev number
6,594

§ Raw data

STARLINK-346361 64915U 25157M   26263.15376320  .00017750  00000+0  53504-3 0  99902 64915  53.1584 159.0997 0001305  91.1713 268.9439 15.34411736 65944

JSON: /api/v1/satellites/64915 · /tle

For live sub-satellite position, see the globe view (requires WebGL).

§ Visibility from observer

Set your observer location to see the next 7 days of passes ≥ 10°. The values pass through the URL so the page stays shareable.

No JS? Fill the form by hand. The geolocation button needs JavaScript.